Regional Weather Roundup
Issued by NWS

Home | Current Version | Previous Version | Graphics & Text | Print | Product List | Glossary On
Versions: 1 2 3 4 5 6 7 8 9 10 11 12 13 14 15 16 17 18 19 20 21 22 23 24 25 26 27 28 29 30 31 32 33 34 35 36 37 38 39 40 41 42 43 44 45 46 47 48 49 50
000
ASUS43 KFSD 250202
RWRSD

WEATHER ROUNDUP FOR SOUTH DAKOTA
NATIONAL WEATHER SERVICE SIOUX FALLS SD
800 PM CST FRI NOV 24 2017

NOTE: "FAIR" INDICATES FEW OR NO CLOUDS BELOW 12,000 FEET WITH NO
SIGNIFICANT WEATHER AND/OR OBSTRUCTIONS TO VISIBILITY.


SDZ001>005-009-010-012>017-250300-
NORTHWEST AND NORTH CENTRAL SOUTH DAKOTA

CITY           SKY/WX    TMP DP  RH WIND       PRES   REMARKS
BUFFALO          N/A     33  27  78 W7        29.87R WCI  27
FAITH            N/A     36  30  79 W9        29.93R
MOBRIDGE       PTCLDY    37  29  72 N8        29.86R
$$

SDZ012>016-024>037-041>051-057-063-072>074-250300-
SOUTHWEST AND SOUTH CENTRAL SOUTH DAKOTA

CITY           SKY/WX    TMP DP  RH WIND       PRES   REMARKS
RAPID CTY ARPT CLEAR     41  27  57 N14       29.96R
PIERRE         CLOUDY    42  35  76 NW10      29.90R
CUSTER         CLEAR     31  18  58 N5        29.98R WCI  26
ELLSWORTH AFB  CLEAR     44  28  53 NW12      29.96R
PHILIP         CLEAR     36  30  79 W8        29.95R
PINE RIDGE     CLEAR     27  22  81 E5        29.97R WCI  22
SPEARFISH      FAIR      37  25  60 W6        29.98R
WINNER         FAIR      41  29  62 NW7       29.92R
$$

SDZ004>011-016>023-039-040-250300-
NORTHEAST SOUTH DAKOTA

CITY           SKY/WX    TMP DP  RH WIND       PRES   REMARKS
ABERDEEN       PTCLDY    42  34  73 W12       29.84R
WATERTOWN      CLEAR     40  34  79 NW13      29.80R
BROOKINGS      CLEAR     38  32  79 NW10      29.81R
SISSETON         N/A     47  35  63 NW23G30   29.76R
$$

SDZ017-020-022-023-036>040-048>070-250300-
SOUTHEAST SOUTH DAKOTA

CITY           SKY/WX    TMP DP  RH WIND       PRES   REMARKS
SIOUX FALLS    CLEAR     41  33  73 NW8       29.82R
HURON          CLEAR     36  31  82 W12       29.85R
CHAMBERLAIN    CLEAR     42  35  74 NW8       29.90R
MITCHELL       CLEAR     44  32  62 W12       29.86R
YANKTON        CLEAR     43  32  65 W10       29.86R
$$

ABBREVIATIONS USED IN REMARKS
   TC - TEMPERATURE IN CELSIUS
  WCI - WIND CHILL INDEX
   HX - HEAT INDEX
  VSB - VISIBILITY





USA.gov is the U.S. government's official web portal to all federal, state and local government web resources and services.